Theta_e
329 329 330 330 330 330 330 330 329 329 330 331 331 331 332 332 331 331 331 331 331 330 330 330 329 329 328 329 329 329 329 329 329 329 328 328 330 331 332 332 332 332 332 332 332 332 332 332 331 331 331 332 332 332 333 333 333 334 333 333 332 332 332 331 330 330 330 330 329
328 328 328 328 328 329 329 328 327 327 327 329 330 330 331 331 331 330 330 330 329 328 327 327 327 327 328 328 328 328 329 329 329 329 328 328 329 330 331 331 331 330 330 330 330 330 330 330 329 329 329 329 330 330 331 331 332 332 332 332 331 331 330 330 329 329 329 329 329
328 328 328 328 328 328 328 327 326 326 327 327 328 329 330 330 329 326 325 324 324 325 324 324 325 325 326 326 326 327 328 329 329 328 327 327 327 328 329 329 330 329 328 327 328 327 327 327 325 325 324 325 325 324 324 324 326 327 327 326 326 326 326 325 325 325 326 326 326
328 328 328 327 327 327 326 326 326 326 326 327 328 328 327 326 325 323 322 322 322 323 323 323 323 322 322 323 323 324 324 325 325 324 324 324 324 325 325 327 326 326 325 324 325 324 324 323 322 321 321 321 319 318 318 319 320 319 319 318 318 319 319 318 318 318 319 320 321
328 328 328 327 327 327 326 326 326 326 326 327 326 325 324 322 322 321 321 321 321 321 322 322 321 321 320 321 321 320 320 320 319 319 320 319 320 320 321 321 322 322 321 321 321 321 321 321 320 319 319 318 317 316 316 317 316 315 315 314 314 314 314 314 314 315 316 316 317
326 327 327 327 327 326 325 325 326 327 326 326 324 322 321 320 321 320 320 320 320 320 320 320 319 319 319 319 318 318 317 317 317 316 316 316 316 317 317 318 319 319 319 318 318 318 318 317 316 316 315 315 314 314 315 315 315 315 314 312 312 312 312 312 312 313 314 314 314
326 326 326 326 325 324 324 325 326 326 326 325 323 322 321 321 320 320 320 320 320 320 320 319 319 318 318 317 317 316 315 315 315 315 315 315 315 316 316 316 317 317 317 316 316 315 315 314 314 313 312 312 312 312 313 314 314 314 313 311 311 311 311 311 311 312 312 312 312
326 326 325 325 324 324 324 324 325 325 325 324 324 323 322 321 320 320 319 319 319 319 319 319 318 318 317 317 316 315 315 314 314 314 314 314 314 314 315 315 315 314 314 314 314 314 313 313 312 311 311 310 310 311 312 313 313 312 311 309 309 309 310 309 310 310 310 311 311
325 325 325 324 324 324 325 324 324 324 324 323 324 323 322 321 321 320 320 319 319 319 319 318 318 317 317 316 315 315 314 314 313 313 312 312 313 313 313 313 313 312 313 313 313 312 312 311 311 311 310 310 310 310 311 312 312 311 309 308 308 308 309 309 309 309 310 310 310
324 324 324 324 324 324 324 324 324 324 323 323 323 322 322 321 321 321 320 320 319 319 318 318 317 317 316 315 315 314 314 313 312 312 311 311 312 312 312 312 311 311 312 311 311 311 310 309 309 308 308 308 308 309 309 310 310 309 309 308 308 307 307 308 308 308 309 309 309
324 324 324 324 324 324 324 324 324 323 323 322 322 322 322 321 321 321 321 320 319 318 318 317 317 317 315 314 314 314 313 312 311 311 311 311 311 311 311 311 310 310 310 310 310 310 309 308 307 306 306 306 307 308 308 309 309 309 308 308 308 307 307 307 307 308 308 308 308
324 324 324 324 324 324 324 323 323 322 321 321 321 321 321 321 321 320 320 319 318 317 317 317 317 316 315 314 313 312 312 311 311 310 309 309 309 309 309 309 310 310 309 309 309 308 308 307 306 306 306 306 307 307 308 309 308 308 308 308 308 307 307 306 307 307 308 308 308
323 323 323 322 323 322 322 321 321 320 320 319 319 318 318 318 319 318 318 317 316 315 314 315 315 314 313 312 312 311 310 310 309 308 308 307 307 307 307 308 308 308 307 307 308 308 307 307 307 307 306 306 307 307 307 308 308 308 307 307 307 307 307 306 307 307 307 307 307
322 321 321 321 321 320 319 318 318 317 317 317 316 315 315 315 316 315 315 314 313 312 312 312 312 312 311 310 310 309 309 308 307 307 307 306 306 306 305 306 306 306 306 306 307 307 307 306 307 306 306 306 306 306 307 307 307 307 307 307 307 306 306 306 306 306 306 306 306
320 320 320 319 319 318 317 316 315 315 315 314 314 314 313 313 313 313 312 312 311 311 310 310 309 309 310 309 308 308 307 307 306 306 305 305 304 304 304 304 304 304 305 306 306 306 307 306 306 306 306 306 305 306 306 306 307 307 307 307 306 306 306 305 305 305 305 305 305
318 318 318 318 317 317 316 315 314 314 314 313 313 312 312 312 312 312 311 310 310 309 309 308 308 308 308 308 307 307 306 306 306 305 304 304 303 303 303 303 304 304 305 305 305 305 305 306 306 306 305 305 305 305 305 306 306 306 306 306 306 305 305 304 304 304 305 305 304
317 317 317 317 316 315 315 314 314 313 313 312 312 312 312 311 311 310 310 309 309 308 307 307 307 307 307 306 306 306 306 305 304 304 304 303 303 303 303 304 304 304 304 304 303 303 304 304 304 304 304 304 304 304 304 304 304 304 304 305 305 304 304 304 304 303 303 303 303
316 316 316 315 315 314 314 313 313 313 312 312 312 311 311 310 310 309 309 309 308 307 307 306 306 306 306 305 305 305 304 304 304 303 303 303 303 303 303 303 304 303 303 302 302 302 302 302 303 303 303 303 303 303 303 303 303 303 303 303 303 303 303 303 303 303 303 303 302
315 315 315 315 314 314 313 313 312 312 312 311 311 311 310 310 309 309 308 308 308 307 306 306 305 305 304 304 304 304 303 303 302 302 302 302 302 302 302 302 302 302 301 301 302 301 301 301 302 302 302 302 302 302 302 302 302 302 302 302 302 302 303 302 302 302 302 302 302
314 314 314 314 314 313 312 312 312 311 311 310 310 310 310 310 309 308 308 307 307 307 306 305 304 304 303 303 303 302 302 302 302 302 301 301 301 301 300 300 300 300 300 300 300 301 301 301 301 301 302 302 301 301 301 301 301 301 301 301 301 302 302 302 302 302 301 301 301
312 312 312 313 312 312 312 311 310 310 310 310 309 309 308 308 308 307 306 306 306 305 305 304 304 303 303 302 301 301 301 301 301 301 300 300 300 300 300 299 299 299 299 299 300 300 300 300 300 301 301 301 301 301 301 300 300 301 301 301 301 301 302 301 301 301 301 301 301
311 311 310 310 310 310 310 309 309 308 308 307 307 307 306 306 306 305 305 305 305 305 304 304 304 303 302 302 301 300 300 300 300 300 300 300 299 299 299 299 299 300 300 300 300 300 300 300 300 300 301 301 300 300 300 300 300 300 300 300 301 301 301 301 300 300 300 300 300
309 308 308 308 308 307 307 306 306 306 305 305 305 305 305 304 305 304 305 305 305 305 305 304 304 303 302 301 300 299 299 299 299 299 299 299 299 299 299 299 300 300 300 300 300 300 300 300 300 301 301 300 300 300 300 300 300 300 300 300 300 300 300 300 300 300 300 300 300
306 306 306 306 305 305 305 305 304 304 304 304 304 304 304 304 304 304 305 305 304 304 304 304 303 302 302 301 300 299 298 298 298 298 298 298 298 298 299 299 299 300 300 300 300 300 300 300 300 300 300 300 300 300 300 300 299 299 299 299 299 299 300 300 299 299 299 300 300
305 305 305 304 304 304 304 304 303 303 303 303 303 303 303 303 303 303 304 304 303 303 302 302 302 302 301 301 300 300 299 298 298 298 297 297 298 298 298 298 299 299 299 300 300 300 301 300 300 300 300 299 299 299 299 299 298 298 298 297 297 298 298 298 299 298 298 299 299
304 304 303 303 303 303 303 302 302 302 302 302 302 302 302 302 303 303 302 302 301 301 301 300 300 300 300 300 300 300 299 299 299 298 298 298 298 298 298 299 299 299 299 300 300 301 301 302 301 301 300 300 299 299 298 298 298 297 297 297 296 296 297 297 297 297 298 298 299
303 302 302 303 302 302 302 302 301 301 301 301 301 301 301 302 301 301 301 300 300 300 300 300 300 300 300 300 300 299 299 299 299 299 299 298 298 298 298 298 298 299 300 300 301 302 302 302 301 301 300 300 300 299 298 297 297 296 296 296 296 296 296 296 296 296 297 297 297
302 302 302 302 302 302 302 302 302 301 301 301 301 301 301 301 300 300 299 299 299 299 299 299 300 300 300 300 299 299 299 299 299 299 298 298 298 297 297 297 298 299 300 301 301 302 302 303 302 301 301 300 300 299 298 297 296 296 296 295 295 295 295 295 296 296 296 296 297
302 302 302 301 301 301 302 302 302 302 302 302 302 301 301 301 300 300 299 299 299 299 299 299 299 300 300 299 299 298 298 298 298 298 298 297 297 297 297 297 298 299 300 301 301 302 302 302 302 301 300 300 299 298 297 296 296 295 295 295 295 295 295 295 295 296 296 295 296
303 303 302 302 301 302 302 302 302 301 302 302 302 301 301 300 300 299 299 299 299 298 299 299 299 299 299 299 298 298 298 298 298 298 298 297 297 297 297 297 298 298 299 301 301 301 301 302 301 301 299 299 298 297 296 296 296 295 295 295 295 295 295 295 295 295 295 295 295
303 302 302 302 302 301 301 301 301 301 302 302 301 301 300 300 300 300 299 299 299 299 299 300 300 299 299 299 298 298 298 298 299 299 299 298 297 297 297 296 297 298 299 301 301 301 301 301 301 299 298 297 297 297 296 295 295 295 295 295 295 295 294 294 294 294 294 295 295
303 302 302 302 301 301 301 301 301 302 301 301 301 301 301 301 301 300 300 299 299 299 299 300 299 299 299 299 298 298 298 298 298 299 299 298 298 297 296 296 297 298 299 300 300 301 300 300 299 299 297 297 296 296 295 295 295 295 295 295 295 295 295 295 294 294 294 294 294
303 303 303 302 302 302 302 302 302 302 302 302 301 301 301 301 301 300 300 299 299 299 299 299 299 299 299 299 298 298 298 298 298 299 299 298 298 297 296 296 297 298 298 300 300 300 300 300 299 298 297 296 296 295 295 295 295 295 295 295 295 295 295 295 295 295 295 294 295
302 302 302 302 302 302 302 302 302 302 302 301 301 301 301 301 300 300 299 299 299 299 299 300 300 300 299 299 299 299 298 298 298 298 298 298 298 297 296 296 297 297 298 299 299 300 299 299 299 298 297 296 296 296 295 295 295 295 295 295 295 295 295 295 295 295 295 295 295
302 302 302 302 302 302 302 303 303 302 302 301 301 301 301 301 301 300 300 299 299 300 300 300 300 300 300 300 299 299 299 298 298 298 298 298 298 297 296 296 297 297 298 299 299 299 299 299 298 298 297 296 296 296 295 295 295 295 295 295 295 294 294 294 294 295 295 295 295
303 302 302 302 302 303 303 303 303 302 302 301 301 301 301 301 301 301 300 300 299 299 300 299 300 300 300 299 299 299 299 299 298 298 298 298 298 297 297 296 296 297 297 298 298 298 298 299 299 298 297 296 296 296 295 295 295 295 295 295 295 295 294 294 294 294 295 295 295
303 303 303 303 303 304 304 304 303 303 302 302 301 301 301 301 301 301 301 300 300 300 299 299 299 299 299 299 299 299 299 299 298 298 298 298 298 298 297 297 297 296 297 298 298 298 298 298 298 298 297 295 295 295 295 294 294 294 295 295 295 294 294 294 294 294 294 295 294
304 304 304 304 304 304 304 304 304 303 303 302 302 301 301 301 301 301 300 300 300 300 300 299 299 299 299 300 299 299 299 299 299 298 298 298 298 298 298 297 297 296 296 296 297 297 297 297 298 297 296 295 295 295 294 294 294 294 294 295 295 295 295 294 294 294 294 294 293
304 305 305 305 305 305 305 304 304 303 303 302 302 302 301 301 301 301 300 300 300 300 300 299 299 299 299 300 299 299 298 299 299 299 298 298 298 298 298 298 297 296 296 295 296 297 297 297 298 297 296 295 296 295 295 294 294 294 294 294 295 295 295 295 294 294 294 294 292
304 305 305 305 305 305 305 305 304 304 303 303 302 302 301 301 301 301 300 301 301 300 300 299 300 299 299 299 299 298 298 298 298 298 298 298 298 297 296 297 297 296 295 295 295 296 297 297 297 297 297 296 296 296 295 294 294 294 294 294 294 294 294 295 295 294 294 294 293
302 303 304 304 304 305 304 304 304 304 303 303 302 302 302 301 301 301 300 300 300 300 300 299 299 299 299 298 298 298 297 297 297 298 298 297 297 296 296 297 296 296 295 295 295 295 296 297 297 297 297 296 296 296 295 294 294 293 294 294 294 294 294 294 295 295 294 294 294
Wind_Speed
8 6 5 5 4 4 3 3 3 3 4 5 5 5 4 3 2 2 2 2 2 2 3 3 3 3 4 6 8 10 11 12 13 14 15 15 15 15 15 15 11 8 8 9 9 8 7 7 6 4 3 3 4 4 4 3 4 5 5 5 4 5 5 6 6 7 7 7 5
10 10 9 8 7 5 4 3 3 3 3 4 4 4 4 3 2 2 1 2 2 3 3 3 3 4 4 4 4 5 7 9 12 13 13 13 12 11 11 12 11 8 7 9 8 7 6 6 5 4 3 3 3 3 3 2 2 3 4 5 3 3 3 4 4 4 5 5 4
10 11 11 11 11 9 7 3 3 3 4 4 4 4 3 3 3 2 2 2 3 3 3 3 4 6 6 6 4 2 2 5 8 8 7 6 6 6 6 8 9 8 6 7 7 7 6 6 5 4 3 3 3 3 3 2 2 1 2 2 1 1 1 1 1 1 1 1 1
8 9 9 10 13 13 11 4 3 4 4 4 3 3 2 3 3 3 3 3 4 4 4 5 6 7 8 9 8 7 6 4 3 2 2 2 2 0 2 5 6 5 4 6 7 7 7 6 5 4 4 5 5 4 3 3 3 3 3 3 3 3 3 2 2 2 2 1 1
7 7 7 7 10 11 9 4 5 5 5 4 4 3 3 3 3 3 4 3 3 4 5 7 7 7 8 9 10 10 9 10 8 6 5 6 6 5 3 1 2 3 4 6 7 8 7 7 5 4 4 5 4 4 3 4 4 4 3 3 3 3 3 3 2 2 2 2 2
6 6 6 6 7 7 6 4 6 7 7 7 6 5 4 3 3 4 4 4 5 6 7 8 8 8 9 10 10 10 10 10 9 7 6 7 7 6 5 3 4 4 5 7 8 8 8 7 5 4 4 4 4 4 4 4 4 4 3 3 3 3 2 2 2 2 2 2 2
6 6 6 6 7 7 6 5 6 8 9 8 9 8 7 6 5 6 6 6 6 7 7 7 8 8 9 9 9 10 10 10 9 8 7 7 8 6 5 3 4 5 6 7 8 8 7 7 5 5 4 4 4 4 4 4 4 4 4 3 3 3 3 3 2 2 2 2 2
6 6 6 7 7 7 7 7 7 7 8 7 9 9 10 9 9 8 8 7 7 7 7 7 8 9 9 9 10 10 11 11 9 8 7 8 8 7 4 3 3 5 6 8 8 8 8 6 5 5 4 4 3 4 4 5 4 4 4 4 3 3 2 2 2 2 2 2 2
6 6 6 6 6 7 7 7 7 7 7 8 9 10 11 11 11 10 9 7 7 7 7 7 9 10 10 11 11 11 11 10 9 8 8 8 8 6 4 3 3 5 6 8 9 9 8 6 5 5 4 4 4 4 4 5 5 5 4 4 3 3 2 2 2 2 2 2 1
7 7 7 7 7 7 7 6 6 7 8 9 10 10 11 10 10 10 8 7 7 7 7 7 9 10 11 12 11 11 10 9 9 9 8 8 8 6 4 3 3 4 6 7 8 8 8 7 6 6 5 5 5 5 5 5 5 5 4 3 3 3 2 2 2 2 2 1 1
9 9 9 8 9 8 7 7 6 7 7 8 9 10 10 9 9 8 7 7 7 7 7 8 9 10 11 11 11 11 10 9 9 9 9 8 7 6 4 3 3 4 6 7 7 7 7 6 6 6 6 5 5 5 5 5 5 4 4 3 3 3 2 2 2 1 1 1 1
9 9 9 9 9 9 8 7 6 6 7 8 8 9 8 8 8 8 8 8 8 8 7 7 8 9 10 9 10 11 11 10 10 10 9 9 8 6 5 4 4 5 6 7 7 7 7 6 6 6 6 6 5 4 4 5 5 4 4 3 3 3 3 2 2 2 2 2 2
9 9 9 9 9 8 8 7 6 6 7 8 8 7 7 7 7 8 8 9 9 8 7 6 7 7 8 8 8 9 10 11 11 11 10 9 8 7 6 5 5 5 6 7 8 8 6 5 5 6 6 6 5 4 5 5 5 5 5 4 4 3 3 3 2 2 2 2 2
9 9 9 9 9 8 7 6 6 6 7 8 7 7 7 7 7 8 8 9 9 8 7 7 6 6 7 8 8 8 9 10 11 11 11 10 9 8 7 6 6 6 6 8 8 7 6 4 5 5 6 6 6 5 5 5 5 5 5 5 4 4 3 3 2 2 2 2 3
9 10 10 10 9 8 7 7 6 6 7 8 7 7 7 7 7 8 9 9 9 8 8 7 7 7 8 9 9 9 9 10 10 11 11 10 9 9 8 7 7 7 7 7 7 6 5 5 5 5 5 6 6 6 5 5 5 4 4 4 4 3 3 2 2 2 2 2 2
10 10 10 10 9 8 8 7 6 6 7 8 8 7 7 7 7 8 9 10 8 8 7 8 8 8 8 9 10 10 10 10 10 10 10 9 9 9 9 8 8 8 8 7 7 6 6 5 5 5 5 5 5 5 5 5 5 5 4 4 3 3 3 2 2 2 2 2 2
10 10 10 9 9 9 8 7 6 6 7 8 8 8 8 7 7 8 9 10 8 8 8 9 8 8 8 9 9 9 9 9 9 9 9 9 9 9 9 9 8 8 7 8 8 7 7 6 5 5 5 5 4 4 4 5 5 4 4 4 3 3 3 2 2 2 2 2 2
10 10 9 9 9 9 9 8 8 8 8 9 9 8 8 8 9 9 9 10 10 10 10 10 9 8 9 9 8 8 8 8 8 8 8 9 9 10 10 9 8 7 7 7 8 8 7 7 6 5 5 4 4 4 4 4 4 4 4 4 3 3 3 3 2 2 1 1 1
9 9 9 9 9 9 9 9 9 9 9 9 9 8 8 9 10 10 10 10 10 11 11 11 10 9 9 10 9 8 8 8 8 8 9 9 10 10 9 8 7 7 6 7 7 7 7 7 7 6 6 5 4 4 4 4 4 4 4 4 4 3 3 3 2 2 1 1 1
8 8 8 8 8 9 9 9 9 9 9 8 9 9 9 9 10 11 12 11 10 11 11 11 11 10 10 11 10 9 8 7 8 9 9 9 9 9 9 8 8 7 7 6 6 6 7 7 7 7 6 6 5 5 4 4 4 4 4 4 3 3 3 3 2 2 1 1 1
7 7 7 7 8 8 9 9 9 9 9 9 9 9 9 9 10 11 12 11 10 10 10 10 11 11 11 12 11 10 8 7 8 9 9 9 9 9 9 9 8 7 7 6 6 6 7 7 7 7 7 6 6 5 5 4 4 4 4 4 3 3 3 3 2 2 1 1 1
7 7 7 8 8 9 9 9 9 10 10 9 9 10 10 10 10 11 11 11 10 10 9 9 10 11 11 11 11 10 9 7 8 8 9 9 9 9 8 8 8 8 7 7 7 7 7 7 7 7 7 6 5 5 5 5 5 4 4 4 4 3 3 3 2 1 1 1 1
8 8 8 8 9 10 10 10 10 10 10 9 9 10 10 10 11 11 11 10 10 9 9 8 9 9 10 10 11 11 10 9 8 8 9 9 9 9 8 8 8 8 7 7 7 7 7 7 7 6 6 6 5 5 4 4 4 4 4 4 4 3 3 2 1 1 0 1 2
9 9 8 8 9 10 11 11 10 10 10 9 9 10 10 10 10 10 10 10 9 9 8 7 7 8 9 10 10 10 10 10 10 10 9 9 9 9 9 8 8 7 6 5 6 6 6 6 6 6 5 5 5 4 3 3 2 2 2 2 2 2 2 2 1 0 1 2 2
10 10 9 9 9 10 10 11 10 10 10 9 9 9 10 10 10 10 9 9 9 8 8 7 8 8 8 9 9 10 10 10 11 11 10 10 9 9 8 7 7 6 5 5 7 7 7 7 6 5 5 5 4 4 3 3 3 3 2 2 1 1 1 1 1 1 1 2 2
10 10 10 10 10 10 10 11 11 10 10 9 9 9 10 9 9 9 9 9 8 8 8 7 7 7 7 8 8 9 9 9 9 10 10 10 10 9 8 7 6 5 5 5 8 8 9 9 8 7 5 4 4 4 3 3 3 3 2 2 1 1 1 1 1 1 2 2 2
10 10 10 10 10 10 11 11 11 10 10 9 10 10 9 9 9 9 9 9 8 8 7 7 7 6 6 7 8 8 8 7 8 9 10 10 10 9 8 6 5 4 5 6 8 8 9 10 9 8 6 4 4 3 3 3 3 3 2 1 1 1 2 2 2 2 2 2 2
10 10 10 10 10 11 11 11 11 10 10 10 10 9 9 9 9 9 9 8 8 7 6 6 5 5 5 5 6 7 7 7 7 8 8 9 9 8 8 6 5 5 5 7 8 8 8 9 9 8 7 5 4 3 3 3 2 2 1 0 1 1 2 2 2 2 2 2 3
11 11 11 11 11 11 11 11 11 10 10 10 10 9 9 9 9 9 9 8 8 7 6 5 4 4 4 5 6 6 7 7 7 7 7 8 8 8 7 6 5 5 6 7 7 8 8 9 9 8 7 6 4 3 3 2 1 1 0 1 1 1 2 2 3 3 2 2 3
11 11 11 11 11 11 11 10 10 10 9 9 9 9 9 9 9 9 9 8 8 7 6 5 5 5 6 6 6 6 6 6 6 7 8 8 8 7 6 6 5 5 5 7 7 7 8 8 9 9 8 7 5 4 2 1 1 0 0 1 1 2 2 2 3 3 3 3 3
10 11 11 11 11 11 10 10 10 9 9 8 8 8 8 8 8 8 8 8 7 6 6 6 7 7 7 7 7 6 6 6 6 6 7 8 7 7 6 5 5 4 4 6 7 7 8 8 9 9 9 7 5 3 2 1 1 0 1 1 1 2 2 3 3 3 3 3 2
10 11 11 11 11 11 10 10 9 9 9 9 8 8 8 8 8 7 7 7 7 7 7 7 8 8 8 7 7 7 6 6 5 5 6 7 7 7 6 5 4 4 4 6 7 7 8 9 10 9 8 7 5 4 3 2 1 1 1 2 2 2 2 2 2 2 2 2 2
10 11 11 11 11 10 10 10 9 9 9 9 8 8 8 8 7 7 7 6 6 7 7 8 8 8 8 8 7 7 6 6 6 6 6 6 6 6 6 5 4 4 5 7 7 8 9 10 10 10 8 7 4 3 2 2 1 1 1 1 1 2 2 2 2 2 2 2 2
10 10 10 10 10 10 9 9 9 9 8 8 8 8 8 8 8 7 7 6 6 6 7 7 7 8 8 8 7 7 6 6 6 6 6 6 6 6 5 4 4 4 6 7 8 8 9 10 10 10 9 7 4 3 2 1 1 1 1 1 1 1 2 2 2 2 2 2 3
10 10 10 9 9 9 9 8 8 8 8 8 8 8 8 8 8 8 7 6 6 6 6 6 6 7 7 7 7 7 7 6 6 6 6 6 6 6 6 5 4 5 6 8 8 8 8 9 9 9 9 7 4 3 2 2 1 2 1 1 1 1 2 2 2 2 2 2 3
10 10 10 9 9 9 8 8 8 7 7 7 7 7 7 8 8 7 7 7 7 7 6 6 6 7 7 7 7 7 7 7 7 7 7 7 7 7 7 6 6 6 7 7 8 8 8 8 9 9 8 6 4 3 2 2 2 2 2 2 2 2 2 2 2 2 2 3 3
9 10 10 9 9 8 8 8 7 7 7 7 7 7 7 7 7 7 7 7 7 7 7 6 7 7 7 7 7 6 6 7 7 7 7 7 8 8 7 7 6 6 6 6 7 7 7 8 9 9 8 5 4 3 2 2 2 2 2 2 2 2 2 2 2 2 2 2 2
9 9 9 9 8 8 8 7 7 7 7 7 7 6 6 6 6 6 6 6 6 6 7 6 6 6 7 7 6 6 6 6 7 7 7 7 7 7 7 7 6 6 5 6 6 7 7 8 9 9 8 5 4 3 2 2 2 2 2 2 2 2 2 2 2 2 2 2 2
7 7 8 8 8 8 7 7 7 7 7 7 6 6 6 5 5 5 5 5 5 6 6 6 6 6 6 6 6 6 6 6 6 6 6 6 6 6 6 6 6 6 5 5 6 6 7 7 8 9 8 5 4 3 2 2 2 2 2 2 2 2 2 2 2 2 2 2 2
6 6 6 7 7 7 7 7 6 6 6 6 6 6 5 5 5 5 5 4 4 5 5 5 6 6 5 5 5 5 5 5 5 5 5 6 5 5 5 5 5 5 5 6 6 6 7 7 8 9 9 5 4 3 2 2 3 3 3 2 2 2 2 2 2 2 2 2 3
4 4 5 5 5 6 6 6 6 5 5 5 5 5 5 5 5 4 4 4 4 4 4 4 5 6 6 5 5 5 5 5 5 5 5 5 5 4 4 4 5 5 5 5 6 6 7 7 8 9 9 6 4 3 3 3 3 3 3 3 2 2 2 2 2 2 2 3 3
Wind_Direction
204 204 202 196 185 176 169 160 148 139 137 138 150 159 164 162 168 176 180 176 167 162 157 152 152 157 172 192 215 229 238 243 243 241 240 240 241 241 239 234 220 190 161 154 152 150 148 147 144 144 147 155 163 165 167 174 185 192 195 195 196 197 198 197 198 198 198 200 203
206 210 213 213 202 188 164 145 144 136 125 116 116 123 131 139 146 153 155 142 125 123 122 116 116 124 136 154 189 219 234 240 240 240 239 239 241 242 241 237 228 207 173 149 143 139 136 138 136 134 135 137 145 146 144 135 178 190 190 184 182 188 194 194 197 199 200 201 204
205 210 215 219 216 211 199 164 151 133 114 96 90 95 105 119 117 109 96 88 96 104 109 109 104 103 104 108 110 130 208 236 239 238 236 234 237 240 239 236 226 210 180 139 131 126 124 124 121 117 113 112 109 104 92 66 64 106 132 118 96 94 103 101 83 86 121 168 190
183 191 201 212 216 215 210 189 148 120 105 86 78 78 87 98 104 105 103 99 97 99 101 103 97 94 93 93 92 91 91 95 96 100 104 103 97 121 243 234 218 199 158 117 115 115 117 116 111 108 106 104 97 91 84 73 68 68 67 57 51 52 58 62 54 48 50 59 65
162 167 178 193 203 204 199 170 130 115 109 101 103 108 111 108 111 113 112 107 103 101 101 101 99 98 98 99 100 98 94 89 84 82 82 83 77 70 64 90 155 138 113 100 103 106 109 110 105 102 101 101 98 95 91 88 83 80 73 61 53 51 53 56 51 48 51 57 55
150 151 153 160 171 177 176 151 130 123 121 125 132 135 133 128 124 124 123 118 114 111 110 107 107 109 111 113 112 108 101 93 90 88 89 89 84 80 75 75 89 95 97 97 97 97 97 98 94 91 89 87 88 88 88 89 91 91 88 78 68 64 64 64 58 56 59 68 68
139 139 136 131 133 138 147 158 141 131 127 131 137 138 137 136 134 133 131 126 125 124 123 122 125 127 127 125 118 110 103 97 95 95 95 92 89 88 89 92 95 96 95 94 92 90 88 88 87 84 80 76 75 76 79 87 94 98 96 86 75 66 60 57 51 49 54 68 74
132 131 130 127 128 134 141 148 138 131 130 134 138 139 141 143 143 141 139 138 139 140 139 137 136 134 130 123 115 108 104 102 103 103 102 97 95 96 99 109 109 103 97 94 94 92 90 87 85 83 82 78 77 78 81 85 93 97 96 88 79 70 64 61 54 53 57 66 67
134 134 135 139 145 149 149 143 137 134 135 138 141 144 147 148 147 146 146 147 147 146 143 139 134 128 121 114 111 109 109 111 115 116 112 105 105 109 117 129 121 110 102 98 97 95 93 89 85 83 83 82 82 82 81 81 86 88 88 86 82 77 72 68 63 61 61 59 56
142 143 146 151 162 165 162 153 146 140 138 140 144 147 149 149 149 150 150 150 146 142 138 136 131 125 120 117 116 118 120 124 125 123 118 112 116 122 132 142 128 114 106 101 98 94 91 87 86 87 87 87 88 88 87 88 90 91 92 92 87 83 81 78 72 71 72 71 82
149 150 152 155 162 163 160 155 150 143 139 140 144 146 147 148 149 150 148 143 137 134 134 134 133 131 129 129 130 131 132 132 129 124 119 115 117 119 124 126 120 112 106 103 98 92 88 87 93 99 102 103 101 101 103 106 107 108 110 113 116 121 124 122 130 135 142 158 188
153 153 153 154 157 156 154 150 146 140 137 137 139 141 142 143 143 142 138 133 128 125 126 130 133 135 135 135 137 137 136 134 129 124 119 116 114 112 111 110 107 103 100 97 91 86 85 93 107 115 118 118 117 118 122 125 125 126 129 136 147 154 158 152 167 173 177 189 203
153 152 151 151 151 149 147 143 139 136 135 133 132 131 131 129 129 128 126 123 119 116 115 118 121 124 127 129 133 134 133 131 127 123 120 118 116 114 112 106 99 92 87 83 81 81 87 104 120 127 129 128 127 129 133 135 135 139 145 155 162 163 161 163 179 187 194 208 215
150 148 147 147 146 143 139 136 133 132 132 130 128 125 123 121 119 117 116 115 114 114 113 112 110 112 116 120 121 121 121 121 120 120 119 119 119 118 115 108 98 86 79 75 78 84 96 119 132 135 134 132 131 133 136 139 140 144 152 159 161 162 162 167 177 187 200 215 221
147 146 146 145 143 141 137 135 133 133 133 131 129 126 124 121 117 115 113 113 113 114 115 114 111 111 113 115 115 113 111 110 112 114 116 118 119 120 117 111 99 90 85 84 90 98 110 127 133 134 131 130 132 134 137 137 138 142 149 154 154 154 156 161 176 190 202 215 223
146 146 146 145 144 142 140 138 137 136 136 134 132 130 127 125 120 117 116 117 116 116 116 118 117 116 115 113 112 111 110 109 112 115 118 121 123 122 118 110 104 102 104 108 112 116 119 122 122 121 122 124 127 131 133 133 133 136 141 141 140 142 147 154 173 191 206 219 229
146 146 146 145 145 144 142 141 139 139 138 136 136 135 133 130 125 122 121 122 122 122 122 122 122 121 118 115 112 111 111 113 117 121 125 127 125 121 115 110 112 117 122 125 124 122 120 115 111 110 111 113 118 121 124 124 127 130 131 129 132 136 143 149 164 182 200 217 231
146 145 145 145 145 144 143 141 140 139 138 138 137 138 137 135 130 126 125 126 127 128 127 125 124 122 119 117 114 112 113 117 122 126 127 125 121 116 113 113 119 124 127 126 124 123 121 118 114 110 106 105 106 108 111 115 120 123 124 125 130 135 140 146 156 171 190 207 226
145 145 145 146 145 143 141 139 138 137 136 136 136 137 137 136 132 129 127 128 130 130 130 127 125 121 119 117 115 113 114 119 124 124 122 118 114 113 114 118 120 119 118 117 119 121 121 121 118 114 112 108 108 109 112 116 120 123 125 128 133 135 138 139 144 154 172 197 226
141 142 143 143 140 137 135 134 132 131 130 130 131 131 132 132 128 126 126 127 128 129 129 128 127 124 121 119 117 117 118 122 124 122 117 113 113 116 119 121 118 115 113 114 117 119 120 119 118 118 118 119 119 120 122 125 128 131 133 133 134 133 132 131 133 140 154 180 228
129 129 128 127 125 125 124 124 123 122 121 121 123 124 124 123 120 119 120 121 122 124 126 128 129 128 127 125 123 123 124 124 124 121 118 117 119 121 123 123 120 119 118 120 123 123 122 119 120 120 122 123 125 129 135 139 140 140 139 135 132 128 126 124 128 137 151 171 211
112 109 108 108 109 110 111 112 113 113 114 115 117 118 118 115 113 112 112 114 117 120 123 126 128 129 129 128 127 128 128 126 124 123 123 124 125 126 126 124 124 124 125 127 126 123 120 117 119 121 123 125 130 139 147 151 149 145 140 133 128 124 120 118 121 134 155 180 208
102 100 98 99 102 103 104 105 106 107 108 110 112 113 113 111 109 109 110 112 116 120 123 124 125 126 126 126 127 128 129 128 126 126 127 128 128 128 127 126 126 128 130 130 127 123 119 116 117 120 124 129 135 143 150 149 146 140 133 127 123 120 117 114 114 127 194 221 221
101 99 97 98 101 103 104 105 104 105 106 107 109 110 109 108 108 109 111 114 117 120 122 122 122 122 123 123 126 129 131 131 130 129 129 129 129 128 127 125 125 126 128 129 131 130 128 124 124 126 129 132 137 140 139 127 113 104 99 103 110 117 124 128 127 158 263 265 249
100 99 98 98 101 103 104 104 104 104 105 106 106 106 106 107 108 110 111 113 115 116 118 118 119 120 122 124 128 131 134 134 133 131 130 129 129 128 126 122 122 124 128 134 140 142 141 138 136 136 136 137 138 135 125 105 89 79 71 60 65 83 129 152 167 206 241 255 263
99 99 99 100 101 101 101 101 102 103 103 104 104 104 104 105 107 108 109 110 112 114 116 117 118 120 122 126 130 133 134 134 134 132 131 130 128 124 121 120 122 126 134 144 149 150 148 144 141 141 141 141 139 133 122 107 94 84 73 48 27 359 328 295 262 251 252 257 269
100 100 101 101 100 100 100 101 101 102 102 103 104 104 105 106 107 108 109 110 112 114 116 117 118 120 123 126 129 131 132 132 131 130 129 127 124 121 118 118 122 129 140 148 149 148 146 142 141 141 141 137 133 125 114 103 96 85 72 40 0 334 319 305 296 289 285 284 284
105 105 104 103 101 102 102 102 103 104 105 107 108 109 110 110 112 113 115 117 118 117 117 115 118 120 121 123 126 127 127 126 124 122 120 117 116 116 117 119 124 132 140 145 143 140 138 137 138 139 136 126 115 104 96 93 92 86 72 350 318 310 301 292 284 280 278 283 285
109 109 107 105 105 105 105 105 107 109 111 113 115 116 118 119 121 123 125 126 127 125 124 123 123 123 122 122 122 120 118 117 115 113 111 110 110 112 116 121 125 132 139 141 137 133 131 133 134 132 124 111 103 97 93 90 86 81 51 280 283 279 275 274 277 278 279 277 278
112 112 111 110 109 109 109 110 112 114 115 117 119 122 124 127 130 132 134 135 135 134 135 136 135 132 129 126 122 117 113 110 111 112 112 111 111 113 117 120 124 132 139 142 136 131 128 129 129 124 119 112 109 107 104 103 101 119 260 264 264 266 267 267 268 268 268 266 268
113 114 114 113 112 112 113 114 115 117 119 121 125 128 131 134 137 138 138 138 137 137 138 139 136 132 129 125 120 115 112 109 110 113 114 115 115 116 117 117 121 130 141 146 138 133 129 128 126 123 121 119 116 115 118 125 144 199 241 249 249 252 254 255 254 254 256 260 265
116 117 116 116 116 117 118 120 121 123 126 129 132 135 136 138 137 136 135 134 134 137 139 140 135 131 127 123 119 117 116 116 117 118 118 118 118 117 117 118 124 135 148 152 144 139 135 132 129 127 124 122 118 119 127 143 178 211 230 239 243 245 246 247 246 246 249 251 256
121 121 121 121 121 123 124 126 129 131 134 136 138 138 138 137 136 134 132 132 136 139 140 139 136 133 131 130 128 127 127 127 127 126 125 124 121 119 119 124 132 147 158 160 153 148 144 141 138 134 130 125 121 124 139 168 199 216 226 236 242 246 250 253 250 246 240 237 240
125 126 126 126 127 129 131 133 134 135 136 136 136 137 137 137 137 135 134 134 138 140 140 139 138 137 137 137 137 138 138 138 137 136 135 134 130 129 131 138 147 161 168 167 161 157 154 152 148 144 139 133 133 141 161 192 226 239 246 254 257 255 253 256 258 256 249 235 232
131 131 131 132 133 135 136 137 135 134 132 131 131 133 134 136 136 135 133 134 136 138 139 139 140 140 141 142 145 146 147 145 144 144 146 148 146 147 148 152 157 168 173 172 167 165 164 162 158 152 146 141 144 153 170 200 239 254 260 262 260 256 253 253 256 257 254 243 234
139 139 139 139 140 140 139 137 134 132 129 128 129 130 131 133 134 133 133 133 137 140 142 144 146 147 149 151 152 153 153 150 149 152 156 160 162 161 160 159 162 169 175 176 173 171 171 171 164 156 149 144 150 162 179 208 241 254 258 259 255 252 250 249 250 250 250 248 239
148 147 146 145 144 142 140 137 135 133 131 130 130 131 132 133 134 135 136 138 141 143 146 149 152 155 157 158 158 158 156 155 155 158 164 170 171 169 165 162 162 167 175 181 180 178 177 177 167 159 152 150 160 175 194 216 239 252 255 254 250 245 243 244 242 242 245 251 256
154 153 150 148 146 144 143 141 138 136 135 134 134 134 135 135 136 139 142 146 148 148 149 152 157 160 160 158 156 156 156 157 159 163 168 175 176 172 167 163 163 166 174 185 189 188 185 182 171 165 161 163 171 184 202 223 239 249 256 256 251 243 239 238 238 238 238 241 260
157 156 152 150 148 147 146 144 142 140 139 137 138 139 141 141 141 143 148 156 156 155 154 156 159 159 156 152 150 151 153 158 163 167 171 176 177 174 169 167 165 167 173 185 195 197 195 190 178 172 170 175 183 192 205 226 241 249 253 257 254 245 237 233 234 234 228 215 224
154 155 154 152 151 150 149 148 146 145 143 142 144 145 145 147 145 146 151 161 163 162 162 163 162 158 152 147 148 150 154 161 166 170 173 176 174 173 173 174 168 168 173 183 195 202 204 200 188 181 179 186 195 200 206 222 237 243 246 249 252 249 242 233 230 228 221 207 205
149 153 155 154 154 153 152 151 151 151 150 151 150 149 148 151 150 152 157 167 170 171 171 171 168 162 157 153 157 159 161 166 171 172 172 172 170 174 181 184 173 170 174 181 191 201 207 209 201 193 190 194 200 203 208 219 232 237 239 244 249 253 254 246 235 227 218 209 203